• în România
  • Lista ţărilor
  • Pe 7 zile
  • Temperatura apei
  • Hartă satelitară
  • Meteo pe hartă
  • Widget-uri
  • user-avatar
    Intrare

    Meteo pe oră la Pogari

    Astăzi, 20 Septembrie, Joi

    Timp Temperatura Precipitaţii Vânt Presiune Umiditate
    00:00 +16°C° 0 mm 2 m/s 744 mmHg 96%
    01:00 +16°C° 0 mm 2 m/s 745 mmHg 97%
    02:00 +16°C° 0 mm 2 m/s 744 mmHg 98%
    03:00 +15°C° 0 mm 2 m/s 745 mmHg 98%
    04:00 +15°C° 0 mm 2 m/s 745 mmHg 98%
    05:00 +15°C° 0 mm 2 m/s 745 mmHg 98%
    06:00 +16°C° 0 mm 2 m/s 745 mmHg 95%
    07:00 +16°C° 0 mm 2 m/s 746 mmHg 92%
    08:00 +17°C° 0 mm 2 m/s 746 mmHg 88%
    09:00 +18°C° 0 mm 2 m/s 746 mmHg 79%
    10:00 +20°C° 0 mm 2 m/s 746 mmHg 70%
    11:00 +21°C° 0 mm 3 m/s 746 mmHg 61%
    12:00 +22°C° 0 mm 3 m/s 746 mmHg 58%
    13:00 +24°C° 0 mm 3 m/s 746 mmHg 55%
    14:00 +24°C° 0 mm 3 m/s 746 mmHg 52%
    15:00 +23°C° 0 mm 2 m/s 746 mmHg 58%
    16:00 +21°C° 0 mm 2 m/s 746 mmHg 64%
    17:00 +21°C° 0 mm 1 m/s 746 mmHg 70%
    18:00 +20°C° 0 mm 1 m/s 746 mmHg 75%
    19:00 +18°C° 0 mm 1 m/s 746 mmHg 79%
    20:00 +16°C° 0 mm 1 m/s 747 mmHg 84%
    21:00 +15°C° 0 mm 1 m/s 747 mmHg 85%
    22:00 +15°C° 0 mm 1 m/s 747 mmHg 86%
    23:00 +14°C° 0 mm 1 m/s 747 mmHg 87%

    Mâine, 21 Septembrie, Vineri

    Timp Temperatura Precipitaţii Vânt Presiune Umiditate
    00:00 +14°C° 0 mm 1 m/s 747 mmHg 88%
    01:00 +14°C° 0 mm 1 m/s 747 mmHg 90%
    02:00 +14°C° 0 mm 1 m/s 747 mmHg 91%
    03:00 +14°C° 0 mm 1 m/s 747 mmHg 92%
    04:00 +14°C° 0 mm 1 m/s 747 mmHg 94%
    05:00 +14°C° 0 mm 1 m/s 747 mmHg 95%
    06:00 +15°C° 0 mm 2 m/s 747 mmHg 91%
    07:00 +17°C° 0 mm 2 m/s 747 mmHg 86%
    08:00 +18°C° 0 mm 2 m/s 747 mmHg 82%
    09:00 +20°C° 0 mm 2 m/s 747 mmHg 76%
    10:00 +23°C° 0 mm 2 m/s 747 mmHg 69%
    11:00 +25°C° 0 mm 3 m/s 747 mmHg 63%
    12:00 +25°C° 0 mm 3 m/s 747 mmHg 61%
    13:00 +26°C° 0 mm 3 m/s 747 mmHg 59%
    14:00 +26°C° 0 mm 3 m/s 747 mmHg 57%
    15:00 +25°C° 0 mm 3 m/s 747 mmHg 63%
    16:00 +24°C° 0 mm 2 m/s 746 mmHg 69%
    17:00 +23°C° 0 mm 2 m/s 746 mmHg 75%
    18:00 +21°C° 0 mm 2 m/s 746 mmHg 80%
    19:00 +20°C° 0 mm 2 m/s 746 mmHg 86%
    20:00 +18°C° 0 mm 2 m/s 746 mmHg 92%
    21:00 +18°C° 0 mm 3 m/s 745 mmHg 90%
    22:00 +18°C° 0 mm 3 m/s 745 mmHg 89%
    23:00 +17°C° 0 mm 3 m/s 745 mmHg 87%

    Poimâine, 22 Septembrie, Sâmbătă

    Timp Temperatura Precipitaţii Vânt Presiune Umiditate
    00:00 +17°C° 0 mm 3 m/s 744 mmHg 86%
    01:00 +17°C° 0 mm 3 m/s 744 mmHg 84%
    02:00 +17°C° 0 mm 3 m/s 744 mmHg 83%
    03:00 +17°C° 0 mm 4 m/s 743 mmHg 82%
    04:00 +17°C° 0 mm 4 m/s 743 mmHg 81%
    05:00 +15°C° 0 mm 4 m/s 742 mmHg 80%
    06:00 +16°C° 0 mm 5 m/s 742 mmHg 75%
    07:00 +17°C° 0 mm 5 m/s 741 mmHg 70%
    08:00 +19°C° 0 mm 5 m/s 741 mmHg 65%
    09:00 +20°C° 0 mm 6 m/s 741 mmHg 60%
    10:00 +21°C° 0 mm 6 m/s 741 mmHg 55%
    11:00 +23°C° 0 mm 6 m/s 741 mmHg 50%
    12:00 +21°C° 0.1 mm 6 m/s 741 mmHg 57%
    13:00 +20°C° 0.1 mm 5 m/s 741 mmHg 63%
    14:00 +18°C° 0.1 mm 4 m/s 741 mmHg 69%
    15:00 +16°C° 0.2 mm 3 m/s 741 mmHg 74%
    16:00 +14°C° 0.2 mm 3 m/s 742 mmHg 78%
    17:00 +12°C° 0.2 mm 3 m/s 742 mmHg 83%
    18:00 +11°C° 0.7 mm 3 m/s 742 mmHg 85%
    19:00 +11°C° 0.7 mm 3 m/s 743 mmHg 87%
    20:00 +10°C° 0.7 mm 3 m/s 743 mmHg 90%
    21:00 +10°C° 0.9 mm 3 m/s 743 mmHg 91%
    22:00 +10°C° 0.9 mm 2 m/s 743 mmHg 92%
    23:00 +10°C° 0.9 mm 2 m/s 743 mmHg 93%

    23 Septembrie, Duminică

    Timp Temperatura Precipitaţii Vânt Presiune Umiditate
    00:00 +9°C° 0.3 mm 2 m/s 743 mmHg 94%
    01:00 +9°C° 0.3 mm 2 m/s 743 mmHg 94%
    02:00 +9°C° 0.3 mm 2 m/s 742 mmHg 95%
    03:00 +9°C° 0.1 mm 2 m/s 742 mmHg 95%
    04:00 +9°C° 0.1 mm 2 m/s 742 mmHg 96%
    05:00 +8°C° 0.1 mm 2 m/s 742 mmHg 96%
    06:00 +9°C° 0 mm 2 m/s 741 mmHg 95%
    07:00 +9°C° 0 mm 2 m/s 741 mmHg 93%
    08:00 +9°C° 0 mm 2 m/s 741 mmHg 91%
    09:00 +11°C° 0 mm 3 m/s 741 mmHg 83%
    10:00 +12°C° 0 mm 4 m/s 741 mmHg 75%
    11:00 +13°C° 0 mm 4 m/s 740 mmHg 67%
    12:00 +13°C° 0.4 mm 4 m/s 740 mmHg 68%
    13:00 +13°C° 0.4 mm 5 m/s 740 mmHg 69%
    14:00 +13°C° 0.4 mm 5 m/s 740 mmHg 69%
    15:00 +12°C° 0.1 mm 4 m/s 740 mmHg 72%
    16:00 +12°C° 0.1 mm 4 m/s 740 mmHg 75%
    17:00 +11°C° 0.1 mm 3 m/s 740 mmHg 78%
    18:00 +10°C° 0 mm 3 m/s 740 mmHg 81%
    19:00 +9°C° 0 mm 3 m/s 740 mmHg 84%
    20:00 +8°C° 0 mm 3 m/s 740 mmHg 87%
    21:00 +8°C° 0 mm 2 m/s 740 mmHg 89%
    22:00 +8°C° 0 mm 2 m/s 740 mmHg 90%
    23:00 +7°C° 0 mm 2 m/s 740 mmHg 92%

    24 Septembrie, Luni

    Timp Temperatura Precipitaţii Vânt Presiune Umiditate
    00:00 +7°C° 0 mm 2 m/s 740 mmHg 91%
    01:00 +7°C° 0 mm 2 m/s 739 mmHg 90%
    02:00 +7°C° 0 mm 2 m/s 739 mmHg 89%
    03:00 +8°C° 0 mm 2 m/s 738 mmHg 88%
    04:00 +8°C° 0 mm 2 m/s 738 mmHg 86%
    05:00 +8°C° 0 mm 3 m/s 737 mmHg 85%
    06:00 +8°C° 0.7 mm 3 m/s 736 mmHg 87%
    07:00 +7°C° 0.7 mm 4 m/s 735 mmHg 89%
    08:00 +7°C° 0.7 mm 4 m/s 735 mmHg 91%
    09:00 +7°C° 1.9 mm 5 m/s 733 mmHg 91%
    10:00 +7°C° 1.9 mm 5 m/s 732 mmHg 92%
    11:00 +8°C° 1.9 mm 6 m/s 731 mmHg 92%
    12:00 +8°C° 1.5 mm 6 m/s 729 mmHg 93%
    13:00 +8°C° 1.5 mm 6 m/s 728 mmHg 93%
    14:00 +9°C° 1.5 mm 6 m/s 726 mmHg 93%
    15:00 +9°C° 2.5 mm 6 m/s 725 mmHg 93%
    16:00 +10°C° 2.5 mm 5 m/s 724 mmHg 93%
    17:00 +12°C° 2.5 mm 5 m/s 723 mmHg 94%
    18:00 +10°C° 0.4 mm 5 m/s 723 mmHg 93%
    19:00 +9°C° 0.4 mm 6 m/s 723 mmHg 92%
    20:00 +8°C° 0.4 mm 6 m/s 724 mmHg 91%
    21:00 +7°C° 0.5 mm 6 m/s 725 mmHg 90%
    22:00 +6°C° 0.5 mm 7 m/s 726 mmHg 90%
    23:00 +5°C° 0.5 mm 8 m/s 727 mmHg 89%

    25 Septembrie, Marţi

    Timp Temperatura Precipitaţii Vânt Presiune Umiditate
    00:00 +5°C° 0.8 mm 8 m/s 728 mmHg 88%
    01:00 +4°C° 0.8 mm 8 m/s 729 mmHg 87%
    02:00 +4°C° 0.8 mm 8 m/s 731 mmHg 86%
    03:00 +4°C° 0.4 mm 8 m/s 732 mmHg 86%
    04:00 +2°C° 0.4 mm 8 m/s 733 mmHg 85%
    05:00 +3°C° 0.4 mm 7 m/s 734 mmHg 85%
    06:00 +3°C° 0.2 mm 7 m/s 735 mmHg 84%
    07:00 +3°C° 0.2 mm 7 m/s 736 mmHg 84%
    08:00 +3°C° 0.2 mm 7 m/s 737 mmHg 83%
    09:00 +4°C° 0.1 mm 7 m/s 738 mmHg 79%
    10:00 +4°C° 0.1 mm 7 m/s 739 mmHg 75%
    11:00 +5°C° 0.1 mm 7 m/s 740 mmHg 71%
    12:00 +7°C° 0.1 mm 6 m/s 741 mmHg 65%
    13:00 +7°C° 0.1 mm 6 m/s 741 mmHg 60%
    14:00 +8°C° 0.1 mm 6 m/s 742 mmHg 54%
    15:00 +7°C° 0 mm 5 m/s 742 mmHg 58%
    16:00 +7°C° 0 mm 4 m/s 742 mmHg 61%
    17:00 +8°C° 0 mm 3 m/s 743 mmHg 65%
    18:00 +7°C° 0 mm 2 m/s 743 mmHg 70%
    19:00 +6°C° 0 mm 2 m/s 744 mmHg 76%
    20:00 +5°C° 0 mm 2 m/s 744 mmHg 81%
    21:00 +4°C° 0.1 mm 2 m/s 745 mmHg 84%
    22:00 +4°C° 0.1 mm 2 m/s 745 mmHg 86%
    23:00 +4°C° 0.1 mm 2 m/s 746 mmHg 89%
    Arată mai mult